Greeley, CO

8:21 PM MDT on March 23, 2017 (GMT -0600)
Greeley-Weld County

Weather History for KGXY - November, 2012

Change the Weather History Date:

Monday, November 12, 2012

  Actual Average Record
Temperature  
Mean Temperature 13 °F -  
Max Temperature 26 °F - 71 °F (1990)
Min Temperature 0 °F - -11 °F (2014)
Degree Days  
Heating Degree Days 52    
Month to date heating degree days  
Cooling Degree Days 0    
Month to date cooling degree days  
Moisture  
Dew Point 7 °F    
Average Humidity 76    
Maximum Humidity 92    
Minimum Humidity 54    
Precipitation  
Precipitation 0.00 in - 0.57 in (1993)
Sea Level Pressure  
Sea Level Pressure 30.25 in    
Wind  
Wind Speed 2 mph (North)    
Max Wind Speed 8 mph    
Max Gust Speed -    
Visibility 10 miles    
Events      
T = Trace of Precipitation, MM = Missing Value Source: NWS Daily Summary

Daily Weather History Graph

Daily Weather History Graph

Search for Another Location

Airport or City:

Trip Planner

Search our weather history database for the weather conditions in past years. The results will help you decide how hot, cold, wet, or windy it might be!

Date:

Astronomy

Nov. 12, 2012 Rise Set
Actual Time 6:41 AM MST 4:43 PM MST
Civil Twilight 6:12 AM MST 5:12 PM MST
Nautical Twilight 5:39 AM MST 5:45 PM MST
Astronomical Twilight 5:07 AM MST 6:17 PM MST
Moon 5:10 AM MST (11/12) 3:50 PM MST (11/12)
Length of Visible Light 10h 59m
Length of Day
10h 01m
Waning Crescent, 2% of the Moon is Illuminated
Nov 12
Waning Crescent
Nov 13
New
Nov 20
First Quarter
Nov 28
Full
Dec 6
Last Quarter

Hourly Weather History & Observations

Time (MST) Temp. Windchill Dew Point Humidity Pressure Visibility Wind Dir Wind Speed Gust Speed Precip Events Conditions
12:15 AM 5.0 °F - -0.4 °F 78% 30.19 in 10.0 mi Calm Calm - N/A   Clear
12:35 AM 3.2 °F - 1.4 °F 92% 30.18 in 10.0 mi Calm Calm - N/A   Clear
12:55 AM 3.2 °F -10.3 °F -0.4 °F 85% 30.19 in 10.0 mi NW 8.1 mph - N/A   Clear
1:15 AM 1.4 °F -9.9 °F -0.4 °F 92% 30.18 in 10.0 mi NNW 5.8 mph - N/A   Clear
1:35 AM 3.2 °F -7.8 °F -0.4 °F 85% 30.20 in 10.0 mi NNW 5.8 mph - N/A   Clear
1:55 AM 6.8 °F -4.8 °F -0.4 °F 72% 30.20 in 10.0 mi North 6.9 mph - N/A   Clear
2:15 AM 5.0 °F - -2.2 °F 72% 30.21 in 10.0 mi Calm Calm - N/A   Clear
2:35 AM 3.2 °F - -4.0 °F 72% 30.21 in 10.0 mi Calm Calm - N/A   Clear
3:15 AM 3.2 °F -7.8 °F -0.4 °F 85% 30.20 in 10.0 mi NNE 5.8 mph - N/A   Clear
3:35 AM 3.2 °F - -0.4 °F 85% 30.20 in 10.0 mi Calm Calm - N/A   Clear
3:55 AM 3.2 °F - -2.2 °F 78% 30.20 in 10.0 mi Calm Calm - N/A   Clear
4:15 AM 1.4 °F - -2.2 °F 85% 30.21 in 10.0 mi Calm Calm - N/A   Clear
4:35 AM 1.4 °F -8.3 °F -2.2 °F 85% 30.21 in 10.0 mi WSW 4.6 mph - N/A   Clear
4:55 AM 1.4 °F -8.3 °F -2.2 °F 85% 30.21 in 10.0 mi WNW 4.6 mph - N/A   Clear
5:15 AM -0.4 °F -10.4 °F -4.0 °F 85% 30.22 in 10.0 mi NNW 4.6 mph - N/A   Clear
5:35 AM -0.4 °F - -5.8 °F 78% 30.22 in 10.0 mi Calm Calm - N/A   Clear
5:55 AM 1.4 °F - -4.0 °F 78% 30.23 in 10.0 mi Calm Calm - N/A   Clear
6:15 AM 1.4 °F -6.2 °F -0.4 °F 92% 30.24 in 10.0 mi NNW 3.5 mph - N/A   Clear
6:35 AM -0.4 °F -13.4 °F -7.6 °F 72% 30.25 in 10.0 mi NNW 6.9 mph - N/A   Partly Cloudy
6:55 AM -0.4 °F -12.0 °F -5.8 °F 78% 30.26 in 10.0 mi NNE 5.8 mph - N/A   Partly Cloudy
7:15 AM -0.4 °F -8.3 °F -5.8 °F 78% 30.27 in 10.0 mi North 3.5 mph - N/A   Clear
7:35 AM 1.4 °F - -2.2 °F 85% 30.28 in 10.0 mi Calm Calm - N/A   Clear
7:55 AM 1.4 °F - -0.4 °F 92% 30.28 in 10.0 mi Calm Calm - N/A   Clear
8:15 AM 5.0 °F - 1.4 °F 85% 30.29 in 10.0 mi Calm Calm - N/A   Clear
8:35 AM 6.8 °F - 3.2 °F 85% 30.29 in 10.0 mi Calm Calm - N/A   Clear
9:15 AM 12.2 °F - 8.6 °F 85% 30.30 in 10.0 mi Calm Calm - N/A   Clear
9:35 AM 15.8 °F - 8.6 °F 73% 30.30 in 10.0 mi Calm Calm - N/A   Clear
9:55 AM 17.6 °F - 8.6 °F 68% 30.31 in 10.0 mi Calm Calm - N/A   Clear
10:15 AM 21.2 °F - 10.4 °F 63% 30.31 in 10.0 mi Calm Calm - N/A   Clear
10:35 AM 24.8 °F - 10.4 °F 54% 30.31 in 10.0 mi Calm Calm - N/A   Clear
10:55 AM 19.4 °F - 8.6 °F 63% 30.30 in 10.0 mi Calm Calm - N/A   Clear
11:35 AM 21.2 °F 16.4 °F 12.2 °F 68% 30.29 in 10.0 mi ESE 3.5 mph - N/A   Clear
11:55 AM 21.2 °F - 12.2 °F 68% 30.28 in 10.0 mi Calm Calm - N/A   Clear
12:15 PM 24.8 °F - 15.8 °F 69% 30.27 in 10.0 mi Calm Calm - N/A   Clear
12:35 PM 23.0 °F - 12.2 °F 63% 30.27 in 10.0 mi Calm Calm - N/A   Clear
12:55 PM 26.6 °F - 12.2 °F 55% 30.27 in 10.0 mi Calm Calm - N/A   Clear
1:15 PM 24.8 °F - 12.2 °F 59% 30.26 in 10.0 mi Calm Calm - N/A   Clear
1:35 PM 24.8 °F 17.9 °F 12.2 °F 59% 30.26 in 10.0 mi ESE 5.8 mph - N/A   Clear
1:55 PM 26.6 °F 22.6 °F 15.8 °F 64% 30.26 in 10.0 mi ESE 3.5 mph - N/A   Clear
2:15 PM 24.8 °F - 15.8 °F 69% 30.26 in 10.0 mi Calm Calm - N/A   Clear
2:35 PM 24.8 °F 20.5 °F 15.8 °F 69% 30.27 in 10.0 mi East 3.5 mph - N/A   Clear
2:55 PM 24.8 °F 19.1 °F 15.8 °F 69% 30.27 in 10.0 mi NE 4.6 mph - N/A   Clear
3:35 PM 24.8 °F - 15.8 °F 69% 30.27 in 10.0 mi Calm Calm - N/A   Clear
3:55 PM 24.8 °F - 15.8 °F 69% 30.26 in 10.0 mi Calm Calm - N/A   Clear
4:15 PM 24.8 °F - 15.8 °F 69% 30.26 in 10.0 mi Calm Calm - N/A   Clear
4:35 PM 23.0 °F 17.0 °F 15.8 °F 74% 30.26 in 10.0 mi North 4.6 mph - N/A   Clear
4:55 PM 19.4 °F 12.8 °F 12.2 °F 74% 30.26 in 10.0 mi North 4.6 mph - N/A   Clear
5:15 PM 19.4 °F 12.8 °F 12.2 °F 74% 30.26 in 10.0 mi North 4.6 mph - N/A   Clear
5:35 PM 19.4 °F - 12.2 °F 74% 30.26 in 10.0 mi Calm Calm - N/A   Clear
5:55 PM 17.6 °F 10.7 °F 12.2 °F 79% 30.26 in 10.0 mi NNE 4.6 mph - N/A   Clear
6:15 PM 17.6 °F 10.7 °F 12.2 °F 79% 30.26 in 10.0 mi NNE 4.6 mph - N/A   Clear
6:35 PM 17.6 °F 12.3 °F 12.2 °F 79% 30.26 in 10.0 mi WSW 3.5 mph - N/A   Clear
6:55 PM 17.6 °F 10.7 °F 12.2 °F 79% 30.26 in 10.0 mi West 4.6 mph - N/A   Clear
7:35 PM 17.6 °F - 12.2 °F 79% 30.25 in 10.0 mi Calm Calm - N/A   Clear
7:55 PM 15.8 °F - 8.6 °F 73% 30.26 in 10.0 mi Calm Calm - N/A   Clear
8:15 PM 14.0 °F - 8.6 °F 79% 30.25 in 10.0 mi Calm Calm - N/A   Clear
8:35 PM 14.0 °F - 8.6 °F 79% 30.25 in 10.0 mi Calm Calm - N/A   Clear
8:55 PM 15.8 °F - 10.4 °F 79% 30.25 in 10.0 mi Calm Calm - N/A   Clear
9:15 PM 17.6 °F - 10.4 °F 73% 30.25 in 10.0 mi Calm Calm - N/A   Clear
9:35 PM 17.6 °F - 12.2 °F 79% 30.25 in 10.0 mi Calm Calm - N/A   Clear
9:55 PM 17.6 °F 12.3 °F 12.2 °F 79% 30.25 in 10.0 mi NW 3.5 mph - N/A   Clear
10:15 PM 17.6 °F - 12.2 °F 79% 30.24 in 10.0 mi Calm Calm - N/A   Clear
10:35 PM 17.6 °F - 12.2 °F 79% 30.24 in 10.0 mi Calm Calm - N/A   Clear
10:55 PM 19.4 °F - 12.2 °F 74% 30.24 in 10.0 mi Calm Calm - N/A   Clear
11:15 PM 19.4 °F - 14.0 °F 80% 30.24 in 10.0 mi Calm Calm - N/A   Clear
11:35 PM 19.4 °F - 14.0 °F 80% 30.23 in 10.0 mi Calm Calm - N/A   Clear
11:55 PM 19.4 °F - 15.8 °F 86% 30.23 in 10.0 mi Calm Calm - N/A   Clear